Location: Oundoundou
(13.6667°N, 13.5500°W)
Time: 19:55:02
(UTC+00:00)

Daily predictions for brighter satellites

Satellite Brightness Start Highest point End
(mag) Time Altitude Azimuth Time Altitude Azimuth Time Altitude Azimuth
Okean 2 Rocket 3.2 19:33:21 10° S 19:37:43 56° E 19:42:06 10° NNE
ARIANE 5 DEB (SYLDA) 4.3 19:44:27 10° SW 19:46:58 17° S 19:49:35 10° SE
Cosmos 1452 Rocket 4.1 19:43:25 10° SSW 19:48:38 64° WNW 19:53:51 10° N
Ariane H10+ 4.5 19:10:24 10° W 19:48:38 63° SSW 19:56:54 13° ESE
Cosmos 1420 Rocket 3.9 19:45:00 10° S 19:50:10 83° ESE 19:55:20 10° NNE
ALOS 2.2 19:46:20 10° SSE 19:51:00 76° ENE 19:55:38 10° N
Lacrosse 5 2.6 19:47:11 10° SW 19:52:10 59° WNW 19:57:09 10° NNE
NOSS 2-3 (C) 4.2 19:47:41 10° SSW 19:52:12 65° WNW 19:56:49 10° NNE
GPS 2-14 Rocket1 2.6 19:49:36 10° WSW 19:53:26 81° NNW 19:56:52 12° ENE
Abrixas 1.9 19:51:33 10° SW 19:54:08 68° SE 19:56:42 10° NE
H-2A R/B 3.3 19:52:22 10° SE 19:55:55 36° ENE 19:59:25 10° N
Cosmos 2297 Rocket 2.8 19:53:46 10° NNW 19:59:19 61° WSW 20:04:51 10° S
FENGYUN 3A 3.6 19:54:21 10° SSE 19:59:44 86° ENE 20:05:06 10° N
Cosmos 1461 3.3 19:56:07 10° NNW 20:00:42 74° WSW 20:05:22 10° SSE
Cosmos 407 Rocket 3.8 19:59:50 10° N 20:04:54 45° ENE 20:09:22 13° SE
Meteor 1-11 Rocket 3.9 20:03:01 10° S 20:08:45 52° E 20:14:22 10° NNE
Cosmos 2322 Rocket 2.6 20:03:25 10° SSW 20:09:04 68° WNW 20:14:44 10° N
Cosmos 1190 Rocket 4.0 20:05:19 10° N 20:10:31 61° ENE 20:15:39 10° SSE
CZ-3C R/B 1.5 20:11:37 10° NW 20:12:47 16° N 20:13:14 15° NNE
USA 186 4.1 20:16:01 13° NE 20:16:01 13° NE 20:16:42 10° NNE
Iridium 30 4.2 20:13:04 10° S 20:15:41 67° W 20:18:50 10° N
OAO 3 Rocket 3.1 20:11:39 10° NW 20:16:26 85° NE 20:18:50 29° ESE
SeaSat 1 2.4 20:11:47 10° NNE 20:16:43 88° ESE 20:21:38 10° SSW
HJ-1C 3.3 20:14:16 15° SSE 20:17:00 74° ENE 20:20:24 10° N
Cosmos 1812 3.3 20:13:49 10° NNW 20:17:37 60° W 20:21:25 10° S
Cosmos 1602 3.8 20:14:14 10° S 20:18:04 78° W 20:21:54 10° N
Cosmos 1300 Rocket 3.9 20:16:11 14° SSE 20:19:32 39° E 20:23:32 10° NNE
SL-16 R/B 3.2 20:15:40 10° SSW 20:21:06 49° WNW 20:26:34 10° N
Cosmos 1553 Rocket 4.4 20:15:40 10° NNE 20:21:10 36° E 20:23:42 25° SE
ASC 2 Rocket 4.1 20:13:31 10° WNW 20:21:34 65° NNE 20:24:36 28° E
ASTRO E2 3.5 20:18:44 10° WSW 20:22:36 48° NNW 20:25:29 17° NE
Spot 2 Rocket 4.2 20:22:17 29° E 20:23:25 32° ENE 20:27:56 10° NNE
Cosmos 676 Rocket 4.2 20:22:20 10° N 20:27:28 48° ENE 20:29:26 33° SE
USA 267 4.1 20:29:45 25° E 20:31:56 31° NE 20:37:32 10° N
Cosmos 2322 3.8 20:26:52 10° S 20:32:16 49° ESE 20:37:42 10° NNE
Cosmos 1140 Rocket 4.1 20:27:34 10° N 20:32:17 34° ENE 20:32:24 34° ENE
Resurs 01 Rocket 1.8 20:31:51 44° ESE 20:32:36 49° ENE 20:36:53 10° N
SJ-6B 3.8 20:31:42 10° S 20:35:32 48° W 20:39:27 10° NNW
MINOTAUR IV R/B 4.5 20:33:28 10° N 20:38:01 75° ENE 20:39:11 49° SE
GPS 2-12 Rocket1 3.9 20:33:51 10° WNW 20:38:09 40° N 20:39:22 33° NE
GOES 2 Rocket 3.9 20:33:07 10° NW 20:38:39 44° NNE 20:39:52 37° ENE
Cosmos 2360 Rocket 2.0 20:36:15 10° SSW 20:41:54 83° ESE 20:47:31 10° NNE
Cosmos 1975 Rocket 4.5 20:41:42 10° NNW 20:45:47 38° W 20:49:50 10° SSW
Cosmos 1954 Rocket 3.9 20:42:29 10° N 20:47:45 65° ENE 20:48:27 58° ESE
Cosmos 44 Rocket 3.5 20:46:00 10° N 20:50:15 52° NE 20:50:15 52° NE
Envisat 3.2 20:53:09 52° NE 20:53:09 52° NE 20:57:32 10° N
Meteor 1-19 Rocket 4.2 20:46:57 10° N 20:52:40 64° E 20:53:20 59° ESE
Meteor 1-5 Rocket 3.9 20:49:13 10° S 20:54:40 84° E 20:59:59 10° N
FALCON 9 R/B 1.8 20:53:22 10° SW 20:56:38 76° SE 20:56:46 75° ESE
ATLAS 2AS CENTAUR R/B 4.3 20:50:42 10° SW 20:57:17 37° WNW 21:04:24 10° N
Cosmos 1536 4.0 21:02:31 28° SW 21:04:06 42° W 21:07:58 10° NNW
Cosmos 1241 Rocket 4.4 21:05:30 10° SSW 21:12:05 87° ESE 21:18:39 10° NNE
CZ-4C R/B 4.4 21:05:56 10° NW 21:12:54 34° WSW 21:19:58 10° S
Lacrosse 5 rocket 3.7 21:15:04 10° NNW 21:16:01 17° NNW 21:16:01 17° NNW
Meteor 2-4 Rocket 4.2 21:14:46 10° N 21:18:56 51° N 21:18:56 51° N
SEDSat Delta rocket 4.1 21:23:16 10° WNW 21:29:14 70° NW 21:29:14 70° NW
Atlas Centaur 2 4.0 21:37:08 10° NW 21:43:38 28° N 21:43:38 28° N
Cosmos 2263 Rocket 4.3 21:58:56 10° NNW 22:00:31 20° NNW 22:00:31 20° NNW
Milstar 3 4.1 22:14:13 10° WNW 22:27:52 61° WSW 22:27:52 61° WSW
